www.pogodaiklimat.ru

Погода и климат >> Архив погоды >> Финляндия >> Килписйарви


ПОГОДА в Килписйарви

  • Прогноз погоды в Килписйарви
  • Монитор погоды в Килписйарви

АРХИВ ПОГОДЫ в Килписйарви

Время (UTC), дата Ветер
(напр.,м/с)
 
Видим.   Явления Облачность Т
(С)
Тd
(С)
f
(%)
Тe
(С)
Тes
(С)
Комфортность P
(гПа)
Po
(гПа)
Тmin
(С)
Tmax
(С)
R
(мм)
R24
(мм)
S
(см)
03 10.07 С 1-1
{2}
50 км ясно +6.1 +4.3 88 +5 +6 1019.1 960.7
06 10.07 Ю 2-3
{4}
40 км 5/5 600 м
[]
+9.9 +6.0 77 +8 +11 1017.6 960.1 +4.9 +13.8
09 10.07 Ю 2-3
{4}
45 км 9/9
[]
+11.9 +6.2 68 +11 +12 1017.0 959.9
12 10.07 Ю 3-4
{6}
35 км {ливн. осадки, дождь} 9/1 1000 м
[]
+14.3 +7.0 61 +13 +17 1016.2 959.6
15 10.07 Ю 2-3
{3}
40 км 9/0
[]
+14.4 +6.6 59 +14 +17 1015.2 958.6
18 10.07 СЗ 3-4
{5}
50 км 5/5 2000 м
[]
+13.1 +7.5 69 +12 +12 1015.0 958.2 +9.9 +15.1
21 10.07 С 5-8
{10}
50 км 10/0 1500 м
[]
+10.7 +6.3 74 +8 +8 1015.4 958.1
00 11.07 С 2-3
{4}
17 км слаб. дождь 10/10 1000 м
[]
+9.6 +6.6 82 +8 +8 1014.7 957.3
03 11.07 -4
{4}
50 км {ливн. осадки, дождь} 9/5 1000 м
[]
+9.7 +6.3 79 1013.9 956.5
06 11.07 С 4-7
{8}
45 км в посл. час дождь {ливн. осадки} 10/10 600 м
[]
+10.0 +6.4 78 +7 +7 1013.2 955.9 +9.4 +13.3 0.1
09 11.07 С 6-10
{10}
50 км 9/0 1000 м
[]
+13.1 +5.6 60 +11 +13 1012.5 955.8
12 11.07 С 6-8
{9}
40 км 1/0
[]
+16.2 +6.5 53 +15 +19 1011.1 955.2
15 11.07 С 5-8
{11}
40 км 6/0
[]
+15.3 +6.1 54 +14 +16 1011.5 955.3
18 11.07 С 7-10
{11}
45 км 6/6
[]
+12.0 +5.6 65 +9 +9 1012.4 955.6 +10.0 +16.8
21 11.07 С 5-9
{9}
45 км 6/0 1500 м
[]
+8.5 +4.7 77 +5 +5 1014.0 956.4
00 12.07 С 4-5
{6}
40 км 4/0 1500 м
[]
+6.9 +4.8 86 +3 +3 1014.6 956.6
03 12.07 ЮЗ 1-1
{2}
40 км ясно +5.7 +4.5 92 +4 +6 1014.8 956.5
06 12.07 Ю 2-4
{4}
35 км ясно +11.0 +6.4 73 +10 +15 1013.3 956.2 +5.4 +12.1
09 12.07 Ю 2-3
{3}
40 км 4/0 1000 м
[]
+17.0 +8.1 56 +17 +25 1011.7 955.8
12 12.07 С 5-8
{8}
30 км ясно +16.9 +6.5 50 +16 +21 1011.3 955.5
15 12.07 С 6-10
{12}
35 км 8/0 1500 м
[]
+16.1 +7.4 56 +15 +16 1011.7 955.7
18 12.07 СЗ 8-12
{12}
40 км 9/9 1500 м
[]
+13.3 +7.0 66 +11 +11 1012.8 956.2 +11.0 +17.5
21 12.07 С 4-6
{8}
45 км ясно +9.8 +6.6 80 +7 +7 1014.8 957.4
00 13.07 СВ 2-4
{5}
40 км ясно +6.1 +4.3 88 +4 +4 1016.1 957.9
03 13.07 штиль 0-1
{1}
50 км 3/0 1000 м
[]
+5.8 +4.0 88 +5 +6 1016.0 957.7
06 13.07 Ю 1-2
{3}
40 км 6/6 1000 м
[]
+10.4 +5.1 70 +10 +12 1014.6 957.4 +5.5 +13.4
09 13.07 Ю 2-3
{3}
35 км 9/0
[]
+15.3 +4.4 48 +15 +20 1013.3 957.0
12 13.07 СЗ 3-6
{6}
29 км ясно +17.6 +4.8 43 +18 +26 1011.9 956.2
15 13.07 С 7-11
{12}
45 км 9/9 2000 м
[]
+13.9 +7.0 63 +12 +12 1012.8 956.3
18 13.07 С 7-12
{13}
45 км 6/6 1000 м
[]
+10.5 +5.1 69 +7 +7 1014.5 957.2 +10.4 +18.2
21 13.07 С 7-10
{10}
40 км 1/0 2000 м
[]
+7.0 +4.5 84 +2 +2 1015.9 957.8
00 14.07 С 6-9
{9}
30 км 9/0 1500 м
[]
+5.8 +4.5 91 +1 +1 1016.3 958.0
03 14.07 С 6-10
{11}
30 км 10/0 600 м
[]
+6.3 +4.8 90 +2 +2 1016.1 957.9
06 14.07 С 6-9
{10}
35 км 10/10 100 м
[]
+6.1 +4.8 91 +1 +1 1016.1 957.8 +5.5 +10.5
09 14.07 С 6-8
{10}
45 км 10/10 600 м
[]
+8.8 +4.9 76 +5 +5 1015.5 957.9
12 14.07 С 6-10
{11}
40 км ясно +11.8 +4.8 62 +9 +13 1014.1 957.1
15 14.07 С 7-11
{12}
35 км ясно +11.2 +4.3 62 +8 +10 1013.9 956.8
18 14.07 С 7-9
{11}
50 км 10/10 1000 м
[]
+7.6 +3.4 75 +3 +3 1015.0 957.1 +6.1 +12.1
21 14.07 С 6-8
{9}
50 км 10/0 600 м
[]
+6.0 +3.1 82 +1 +1 1015.4 957.2
00 15.07 С 4-6
{7}
50 км 10/0 600 м
[]
+5.5 +3.6 88 +1 +1 1015.1 956.8
03 15.07 С 3-5
{5}
50 км 10/0 600 м
[]
+5.4 +3.2 86 +2 +2 1014.7 956.4
06 15.07 СЗ 3-4
{6}
45 км 9/9 1000 м
[]
+7.0 +4.1 82 +4 +4 1014.2 956.2 +5.4 +7.6
09 15.07 С 5-7
{7}
45 км 10/0 600 м
[]
+8.4 +4.3 75 +5 +7 1013.8 956.2
12 15.07 С 4-7
{7}
50 км 10/0 600 м
[]
+8.5 +3.4 70 +6 +9 1013.9 956.3
15 15.07 С 5-9
{9}
45 км 10/0 1000 м
[]
+10.1 +3.5 64 +7 +9 1013.6 956.3
18 15.07 С 6-9
{9}
50 км 10/10 1000 м
[]
+7.5 +3.1 74 +3 +3 1014.7 956.8 +7.0 +10.2
21 15.07 С 4-6
{9}
50 км 10/0 1000 м
[]
+6.3 +3.4 82 +3 +3 1015.7 957.6
00 16.07 С 3-4
{6}
50 км 10/0 600 м
[]
+5.7 +3.8 88 +2 +2 1016.4 958.0
03 16.07 С 3-4
{4}
18 км слаб. дождь 10/0 600 м
[]
+5.8 +5.1 95 +2 +3 1016.6 958.3 0.3
06 16.07 С 3-4
{4}
30 км слаб. дождь 10/10 200 м
[]
+6.7 +5.7 93 +3 +3 1016.6 958.5 +5.4 +7.5 1
09 16.07 Ю 3-4
{4}
35 км в посл. час морось {ливн. осадки, дождь} 10/0 1000 м
[]
+10.7 +6.8 77 +9 +13 1015.5 958.3
12 16.07 СЗ 5-7
{8}
40 км {ливн. осадки, дождь} 10/0 1000 м
[]
+10.1 +5.4 73 +7 +10 1015.7 958.3
15 16.07 СЗ 4-5
{6}
35 км в посл. час морось {ливн. осадки, дождь} 9/8 1000 м
[]
+11.3 +4.9 65 +9 +10 1015.5 958.3
18 16.07 СЗ 6-7
{9}
40 км слаб. дождь 10/10 1000 м
[]
+8.2 +5.4 82 +4 +4 1016.7 958.9 +6.7 +12.4
21 16.07 С 4-6
{9}
16 км слаб. ливневой дождь 10/10 600 м
[]
+6.4 +5.5 94 +2 +2 1017.5 959.2
00 17.07 -4
{6}
13 км морось {ливн. осадки, дождь} 10/10 100 м
[]
+6.1 +5.6 97 1017.6 959.3 0.3

 

Местоположение метеостанции Килписйарви (Финляндия): широта 69.05 долгота 20.79 высота над уровнем моря 480 м.

В архиве по умолчанию представлена погода в Килписйарви за последнюю неделю. Архивные данные за месяц целиком и за предыдущие месяцы, начиная с января 2011 года, Вы можете получить, выбрав интересующий диапазон дат из раскрывающегося списка и нажав кнопку "Ввод!".


*Определитесь, кто Вы:
робот инопланетянин человек

Внимание! Время в таблицах - всемирное. Для получения местного времени необходимо прибавить поправку, которая равна 1 ч.

Смотрите также архив погоды в соседних городах и на ближайших метеорологических станциях:

Погода на Саане (Финляндия) (2 км)
Погода в Шиботне (Норвегия) (42 км)
Погода в Наймакке (Швеция) (51 км)
Погода в Дивидалене (Норвегия) (53 км)
Погода в Норднесфьеллете (Норвегия) (60 км)
Погода в Люнгене (Норвегия) (63 км)
Погода в Сёрхьюсен аэропорту (Норвегия) (83 км)
Погода в Кёутукейну (Норвегия) (89 км)
Погода в Бардуфоссе (Норвегия) (89 км)
Погода в Каресуандо (Швеция) (95 км)

Пояснения к столбцам:

Ветер - указаны скорость ветра в м/с - средняя за 10 мин, порывы в срок и между сроками (в фигурных скобках) и направление, откуда дует ветер: С - северный, СВ - северо-восточный, В - восточный, ЮВ - юго-восточный, Ю - южный, ЮЗ - юго-западный, З - западный, СЗ - северо-западный.
Видимость - горизонтальная дальность видимости в метрах или километрах. При видимости от 1 до 10 км при отсутствии осадков обычно наблюдается дымка, при ухудшении видимости до 1 км и менее - туман. В сухую погоду видимость может ухудшаться дымом, пылью или мглою.
Явления - указаны атмосферные явления, наблюдавшиеся в срок или в последний час перед сроком; фигурными скобками обозначены явления, наблюдавшиеся между сроками (за 1-3 часа до срока); квадратными скобками обозначены град или гололедные отложения с указанием их диаметра в мм.
Облачность - указаны через наклонную черту общая и нижняя облачность в баллах и высота нижней границы облаков в метрах; квадратными скобками обозначены формы облаков: Ci - перистые, Cs - перисто-слоистые, Cc - перисто-кучевые, Ac - высококучевые, As - высокослоистые, Sc - слоисто-кучевые, Ns - слоисто-дождевые, Cu - кучевые, Cb - кучево-дождевые. Подробнее классификацию облаков см. в Атласе облаков (PDF).
T - Температура воздуха - температура, измеренная на высоте 2 м над землей.
Td - Температура точки росы - температура, при понижении до которой содержащийся в воздухе водяной пар достигнет насыщения.
f - Относительная влажность воздуха - влажноcть воздуха, измеренная на высоте 2 м над землей.
Te - Эффективная температура - температура, которую ощущает одетый по сезону человек в тени. Характеристика душности погоды. При расчете учитывается влияние влажности воздуха и скорости ветра на теплоощущения человека.
Tes - Эффективная температура на солнце - температура, которую ощущает человек, с поправкой на солнечный нагрев. Характеристика знойности погоды. Зависит от высоты солнца над горизонтом, облачности и скорости ветра. Ночью, в пасмурную погоду, а также при ветре 12 м/с и более поправка равна нулю.
P - Атмосферное давление - приведенное к уровню моря атмосферное давление.
Po - Атмосферное давление - измеренное на уровне метеостанции атмосферное давление.
Tmin - Минимальная температура - минимум температуры воздуха на высоте 2 м над землей.
Tmax - Максимальная температура - максимум температуры воздуха на высоте 2 м над землей.
R - Количество осадков - Количество выпавших осадков за период времени, мм. При наведении курсора мыши на число - период времени, за который выпало указанное количество осадков.
R24 - Количество осадков - Количество выпавших осадков за 24 часа, мм.
S - Снежный покров - Высота снежного покрова, см. При наведении курсора мыши на число - состояние снежного покрова и степень покрытия местности в баллах.